This demonstration page uses our WeatherBlox Daily Observations layout. Learn more.

Left ArrowRight Arrow

39.51506, -84.39828

Hourly Observations for August 12, 2016

Temp ( °F °C ) Dew Point ( °F °C ) Humidity (%) Winds ( mph kmh ) Pressure ( in mb ) Visibility ( mi km ) Precip ( " mm )
12:15 am 00:15 Clear 77 25.1 71 21.5 81 81 N N/A 29.97 1015 10 16 N/A
12:35 am 00:35 Clear 77 25.1 71 21.5 81 81 N N/A 29.97 1015 10 16 N/A
12:55 am 00:55 Clear 77 25.1 71 21.6 81 81 N N/A 29.97 1015 10 16 N/A
1:15 am 01:15 Clear 77 25.1 71 21.7 81 81 N N/A 29.97 1015 10 16 N/A
1:35 am 01:35 Clear 77 25.1 71 21.7 81 81 N N/A 29.97 1015 10 16 N/A
1:55 am 01:55 Clear 77 25.1 71 21.7 81 81 N N/A 29.97 1015 10 16 N/A
2:15 am 02:15 Clear 77 25.1 71 21.9 82 82 N N/A 29.97 1015 10 16 N/A
2:35 am 02:35 Mostly Cloudy 76 24.2 70 21 82 82 N N/A 29.97 1015 10 16 N/A
2:55 am 02:55 Cloudy 77 25.1 72 22 83 83 N N/A 29.97 1015 10 16 N/A
3:15 am 03:15 Cloudy 77 25.1 72 22 83 83 N N/A 29.97 1015 10 16 N/A
3:35 am 03:35 Cloudy with Haze 77 25.1 71 21.5 81 81 N N/A 29.97 1015 3 5 N/A
3:55 am 03:55 Mostly Cloudy 77 25.1 71 21.8 82 82 N N/A 29.94 1014 10 16 N/A
4:15 am 04:15 Partly Cloudy 77 25.1 71 21.6 81 81 SW 5 7 29.94 1014 10 16 N/A
4:35 am 04:35 Partly Cloudy 77 25.1 72 22 83 83 SSW 5 7 29.94 1014 10 16 N/A
4:55 am 04:55 Clear 77 25.1 72 22 83 83 SSW 5 7 29.94 1014 10 16 N/A
5:15 am 05:15 Clear 77 25.1 72 22 83 83 SW 3 6 29.94 1014 10 16 N/A
5:35 am 05:35 Clear 76 24.5 70 21.3 82 82 S 3 6 29.94 1014 10 16 N/A
5:55 am 05:55 Clear 76 24.6 71 21.4 82 82 S 3 6 29.94 1014 10 16 N/A
6:15 am 06:15 Clear 74 23.6 69 20.5 83 83 N N/A 29.94 1014 10 16 N/A
6:35 am 06:35 Clear 74 23.6 69 20.5 83 83 N N/A 29.94 1014 10 16 N/A
6:55 am 06:55 Sunny 74 23.6 69 20.7 84 84 N N/A 29.94 1014 10 16 N/A
7:15 am 07:15 Sunny 74 23.6 70 21 85 85 N N/A 29.94 1014 7 11 N/A
7:35 am 07:35 Sunny 76 24.3 71 21.4 84 84 N N/A 29.94 1014 10 16 N/A
7:55 am 07:55 Sunny 77 25.1 72 22 83 83 N N/A 29.94 1014 10 16 N/A
8:15 am 08:15 Sunny 80 26.5 72 22.3 78 78 SSW 3 6 29.94 1014 10 16 N/A
8:35 am 08:35 Sunny 80 26.5 72 22 76 76 SW 3 6 29.94 1014 10 16 N/A
8:55 am 08:55 Sunny 82 27.6 72 22.1 72 72 SSW 7 11 29.91 1013 10 16 N/A
9:15 am 09:15 Sunny 83 28.2 71 21.7 68 68 SW 7 11 29.91 1013 10 16 N/A
9:35 am 09:35 Sunny 84 29 70 21.2 63 63 SSW 10 17 29.91 1013 10 16 N/A
9:55 am 09:55 Sunny 87 30.7 71 21.6 58 58 SSW 9 15 29.91 1013 10 16 N/A
10:15 am 10:15 Sunny 90 32 72 22.1 56 56 SW 10 17 29.91 1013 10 16 N/A
10:35 am 10:35 Partly Cloudy 87 30.7 70 21.1 57 57 SSW 8 13 29.91 1013 10 16 N/A
10:55 am 10:55 Mostly Cloudy 90 32.1 72 22 55 55 SW 9 15 29.91 1013 10 16 N/A
11:15 am 11:15 Cloudy 90 32.1 70 21.3 53 53 SSW 10 17 29.91 1013 10 16 N/A
11:35 am 11:35 Mostly Cloudy 90 32.1 70 21.3 53 53 SW 12 19 29.91 1013 10 16 N/A
11:55 am 11:55 Mostly Cloudy 90 32.1 69 20.5 50 50 WSW 10 17 29.91 1013 10 16 N/A
12:15 pm 12:15 Partly Cloudy 90 32.1 68 20.2 49 49 W 7 11 29.91 1013 10 16 N/A
12:35 pm 12:35 Partly Cloudy 90 32.1 69 20.4 50 50 SW 10 17 29.88 1012 10 16 N/A
12:55 pm 12:55 Mostly Cloudy 92 33.6 69 20.4 46 46 WSW 10 17 29.88 1012 10 16 N/A
1:15 pm 13:15 Mostly Cloudy 91 33 68 19.8 46 46 WSW 13 20 29.88 1012 10 16 N/A
1:35 pm 13:35 Mostly Cloudy 90 32.1 67 19.3 47 47 SW 9 15 29.85 1011 10 16 N/A
1:55 pm 13:55 Mostly Cloudy 90 32.1 66 19 46 46 SSW 9 15 29.85 1011 10 16 N/A
2:15 pm 14:15 Cloudy 90 32.1 66 18.9 46 46 SW 8 13 29.85 1011 10 16 N/A
2:35 pm 14:35 Cloudy 90 32.1 66 19 46 46 SSW 12 19 29.85 1011 10 16 N/A
2:55 pm 14:55 Cloudy 91 33 65 18.6 42 42 SSW 16 26 29.85 1011 10 16 N/A
3:15 pm 15:15 Cloudy 90 32.1 66 18.8 45 45 SW 10 17 29.85 1011 10 16 N/A
3:35 pm 15:35 Cloudy 91 32.6 66 18.8 44 44 S 13 20 29.85 1011 10 16 N/A
3:55 pm 15:55 Cloudy 94 34.6 68 20.2 43 43 SSW 13 20 29.85 1011 10 16 N/A
4:15 pm 16:15 Mostly Cloudy 92 33.6 67 19.2 43 43 SW 13 20 29.85 1011 10 16 N/A
4:35 pm 16:35 Cloudy 90 32.1 66 19.1 46 46 SW 14 22 29.85 1011 10 16 N/A
4:55 pm 16:55 Cloudy 90 32.1 66 19.1 46 46 SW 15 24 29.85 1011 10 16 N/A
5:15 pm 17:15 Cloudy 93 34 69 20.8 46 46 SSW 15 24 29.85 1011 10 16 N/A
5:35 pm 17:35 Mostly Cloudy 94 34.2 68 19.8 43 43 SW 14 22 29.85 1011 10 16 N/A
5:55 pm 17:55 Cloudy 90 32.1 67 19.2 46 46 SSW 10 17 29.85 1011 10 16 N/A
6:15 pm 18:15 Cloudy 90 32.3 67 19.7 47 47 SSW 10 17 29.85 1011 10 16 N/A
6:35 pm 18:35 Cloudy 90 32.1 68 19.9 48 48 SSW 15 24 29.85 1011 10 16 N/A
6:55 pm 18:55 Mostly Cloudy 90 32.1 67 19.6 48 48 SSW 13 20 29.83 1010 10 16 N/A
7:15 pm 19:15 Cloudy 90 32.1 69 20.5 50 50 SSW 13 20 29.83 1010 10 16 N/A
7:35 pm 19:35 Cloudy 90 32.1 69 20.6 51 51 SSW 8 13 29.83 1010 10 16 N/A
7:55 pm 19:55 Cloudy 90 32.1 69 20.7 51 51 SSW 8 13 29.83 1010 10 16 N/A
8:15 pm 20:15 Mostly Cloudy 90 32.1 70 21.1 52 52 SSW 7 11 29.83 1010 10 16 N/A
8:35 pm 20:35 Partly Cloudy 85 29.3 67 19.7 56 56 SSW 6 9 29.83 1010 10 16 N/A
8:55 pm 20:55 Partly Cloudy 84 28.7 67 19.6 58 58 SSW 6 9 29.83 1010 10 16 N/A
9:15 pm 21:15 Clear 82 28 69 20.3 63 63 WSW 3 6 29.85 1011 10 16 N/A
9:35 pm 21:35 Clear 81 27.2 69 20.6 67 67 N N/A 29.85 1011 10 16 N/A
9:55 pm 21:55 Clear 81 27.2 70 21.2 70 70 N N/A 29.85 1011 10 16 N/A
10:15 pm 22:15 Clear 80 26.5 72 22.1 77 77 N N/A 29.88 1012 10 16 N/A
10:35 pm 22:35 Clear 80 26.5 72 22.1 77 77 N N/A 29.88 1012 10 16 N/A
10:55 pm 22:55 Clear 80 26.5 71 21.7 75 75 WSW 3 6 29.88 1012 10 16 N/A
11:15 pm 23:15 Clear 80 26.5 72 22.1 77 77 N N/A 29.88 1012 10 16 N/A
11:35 pm 23:35 Clear 80 26.5 72 22.1 77 77 N N/A 29.88 1012 10 16 N/A
11:55 pm 23:55 Clear 80 26.5 72 22 76 76 SW 3 6 29.88 1012 10 16 N/A

Powered by AerisWeather